| time (UTC) | temp C | wind direction | speed KPH | gust KPH | rain 1hr cm | rain 24hr cm | rain mn cm | humidity % | barometer mb |
| 20260507203151 | 8 | 57 | 0.0 | 0.0 | 0.00 | 0.15 | 0.13 | 88 | 1013.8 |
| 20260507202625 | 8 | 57 | 0.0 | 0.0 | 0.00 | 0.15 | 0.13 | 87 | 1013.8 |
| 20260507202055 | 9 | 56 | 0.0 | 0.0 | 0.00 | 0.15 | 0.13 | 87 | 1013.8 |
| 20260507201849 | 9 | 56 | 0.0 | 0.0 | 0.00 | 0.15 | 0.13 | 86 | 1013.8 |
| 20260507201648 | 9 | 56 | 0.0 | 0.0 | 0.00 | 0.15 | 0.13 | 86 | 1013.8 |
| 20260507201445 | 9 | 56 | 0.0 | 0.0 | 0.00 | 0.15 | 0.13 | 86 | 1013.7 |
| 20260507201242 | 9 | 56 | 0.0 | 0.0 | 0.00 | 0.15 | 0.13 | 86 | 1013.7 |
| 20260507201041 | 9 | 56 | 0.0 | 0.0 | 0.00 | 0.15 | 0.13 | 85 | 1013.8 |
| 20260507200835 | 9 | 56 | 0.0 | 0.0 | 0.00 | 0.15 | 0.13 | 85 | 1013.7 |
| 20260507200625 | 9 | 56 | 0.0 | 0.0 | 0.00 | 0.15 | 0.13 | 85 | 1013.6 |
| 20260507200423 | 10 | 56 | 0.0 | 0.0 | 0.00 | 0.15 | 0.13 | 85 | 1013.6 |
| 20260507200213 | 10 | 56 | 0.0 | 3.2 | 0.00 | 0.15 | 0.13 | 85 | 1013.6 |
| 20260507200007 | 10 | 56 | 0.0 | 3.2 | 0.00 | 0.15 | 0.13 | 85 | 1013.6 |
| 20260507195446 | 10 | 49 | 0.0 | 0.0 | 0.00 | 0.15 | 0.13 | 84 | 1013.6 |
| 20260507195240 | 10 | 49 | 0.0 | 3.2 | 0.00 | 0.15 | 0.13 | 84 | 1013.6 |
| 20260507195031 | 10 | 49 | 0.0 | 3.2 | 0.00 | 0.15 | 0.13 | 84 | 1013.6 |
| 20260507194831 | 10 | 47 | 0.0 | 3.2 | 0.00 | 0.15 | 0.13 | 84 | 1013.6 |
| 20260507194629 | 10 | 56 | 0.0 | 3.2 | 0.00 | 0.15 | 0.13 | 84 | 1013.6 |
| 20260507194429 | 10 | 44 | 0.0 | 3.2 | 0.00 | 0.15 | 0.13 | 84 | 1013.6 |
| 20260507194229 | 10 | 44 | 0.0 | 3.2 | 0.00 | 0.15 | 0.13 | 84 | 1013.5 |
| 20260507194022 | 10 | 49 | 0.0 | 3.2 | 0.00 | 0.15 | 0.13 | 84 | 1013.4 |
| 20260507193823 | 10 | 49 | 0.0 | 3.2 | 0.00 | 0.15 | 0.13 | 84 | 1013.4 |
| 20260507193623 | 10 | 51 | 0.0 | 3.2 | 0.00 | 0.15 | 0.13 | 84 | 1013.3 |
| 20260507193421 | 10 | 53 | 0.0 | 0.0 | 0.00 | 0.15 | 0.13 | 84 | 1013.4 |
| 20260507193218 | 10 | 53 | 0.0 | 4.8 | 0.00 | 0.15 | 0.13 | 84 | 1013.3 |
| 20260507193011 | 10 | 54 | 0.0 | 4.8 | 0.00 | 0.15 | 0.13 | 84 | 1013.4 |
| 20260507192805 | 10 | 58 | 0.0 | 4.8 | 0.00 | 0.15 | 0.13 | 83 | 1013.3 |
| 20260507192602 | 10 | 58 | 0.0 | 4.8 | 0.00 | 0.15 | 0.13 | 83 | 1013.3 |
| 20260507192355 | 10 | 49 | 0.0 | 4.8 | 0.00 | 0.15 | 0.13 | 83 | 1013.3 |
| 20260507192151 | 10 | 49 | 1.6 | 9.7 | 0.00 | 0.15 | 0.13 | 83 | 1013.3 |
| 20260507191949 | 10 | 57 | 1.6 | 9.7 | 0.00 | 0.15 | 0.13 | 83 | 1013.3 |
| 20260507191738 | 10 | 57 | 3.2 | 9.7 | 0.00 | 0.15 | 0.13 | 83 | 1013.3 |
| 20260507191531 | 10 | 65 | 4.8 | 9.7 | 0.00 | 0.15 | 0.13 | 83 | 1013.2 |
| 20260507191332 | 10 | 40 | 4.8 | 9.7 | 0.00 | 0.15 | 0.13 | 82 | 1013.2 |
| 20260507191124 | 10 | 50 | 4.8 | 9.7 | 0.00 | 0.15 | 0.13 | 82 | 1013.1 |
| 20260507190919 | 10 | 44 | 4.8 | 9.7 | 0.00 | 0.15 | 0.13 | 83 | 1013.2 |
| 20260507190712 | 10 | 46 | 4.8 | 9.7 | 0.00 | 0.15 | 0.13 | 83 | 1013.2 |
| 20260507190507 | 10 | 39 | 3.2 | 9.7 | 0.00 | 0.15 | 0.13 | 83 | 1013.2 |
| 20260507190304 | 10 | 45 | 3.2 | 8.0 | 0.00 | 0.15 | 0.13 | 83 | 1013.1 |
| 20260507185744 | 10 | 40 | 3.2 | 8.0 | 0.00 | 0.15 | 0.13 | 83 | 1013.2 |
| 20260507185545 | 10 | 44 | 3.2 | 8.0 | 0.00 | 0.15 | 0.13 | 82 | 1013.1 |
| 20260507185027 | 10 | 52 | 3.2 | 8.0 | 0.00 | 0.15 | 0.13 | 82 | 1013.0 |
| 20260507184817 | 10 | 53 | 3.2 | 8.0 | 0.00 | 0.15 | 0.13 | 82 | 1013.1 |
| 20260507184616 | 10 | 49 | 3.2 | 8.0 | 0.00 | 0.15 | 0.13 | 82 | 1013.1 |
| 20260507184407 | 10 | 43 | 1.6 | 8.0 | 0.00 | 0.15 | 0.13 | 82 | 1013.2 |
| 20260507184202 | 10 | 36 | 1.6 | 6.4 | 0.00 | 0.15 | 0.13 | 81 | 1013.1 |
| 20260507183958 | 10 | 51 | 1.6 | 6.4 | 0.00 | 0.15 | 0.13 | 81 | 1013.1 |
| 20260507183747 | 10 | 39 | 1.6 | 6.4 | 0.00 | 0.15 | 0.13 | 81 | 1013.1 |
| 20260507183541 | 10 | 46 | 1.6 | 6.4 | 0.00 | 0.15 | 0.13 | 81 | 1013.1 |
| 20260507182704 | 10 | 79 | 3.2 | 6.4 | 0.00 | 0.15 | 0.13 | 80 | 1013.1 |
| 20260507182459 | 10 | 42 | 3.2 | 6.4 | 0.00 | 0.15 | 0.13 | 80 | 1013.1 |
| 20260507181935 | 10 | 42 | 1.6 | 6.4 | 0.00 | 0.15 | 0.13 | 80 | 1013.1 |
| 20260507181730 | 10 | 47 | 1.6 | 4.8 | 0.00 | 0.15 | 0.13 | 80 | 1013.0 |
| 20260507181529 | 10 | 50 | 1.6 | 4.8 | 0.00 | 0.15 | 0.13 | 80 | 1013.0 |
| 20260507181330 | 10 | 57 | 1.6 | 6.4 | 0.00 | 0.15 | 0.13 | 80 | 1013.2 |
| 20260507181129 | 11 | 44 | 1.6 | 6.4 | 0.00 | 0.15 | 0.13 | 80 | 1013.1 |
| 20260507180925 | 11 | 46 | 1.6 | 6.4 | 0.00 | 0.15 | 0.13 | 80 | 1013.2 |
| 20260507180716 | 11 | 41 | 1.6 | 6.4 | 0.00 | 0.15 | 0.13 | 80 | 1013.2 |
| 20260507180513 | 11 | 45 | 1.6 | 6.4 | 0.00 | 0.15 | 0.13 | 80 | 1013.2 |
| 20260507180303 | 11 | 44 | 3.2 | 8.0 | 0.00 | 0.15 | 0.13 | 80 | 1013.1 |
| 20260507180059 | 11 | 50 | 3.2 | 8.0 | 0.00 | 0.15 | 0.13 | 79 | 1013.1 |
| 20260507175855 | 11 | 56 | 3.2 | 8.0 | 0.00 | 0.15 | 0.13 | 79 | 1013.1 |
| 20260507175651 | 11 | 42 | 3.2 | 8.0 | 0.00 | 0.15 | 0.13 | 79 | 1013.1 |
| 20260507175443 | 11 | 38 | 3.2 | 8.0 | 0.00 | 0.15 | 0.13 | 79 | 1013.0 |
| 20260507175236 | 11 | 50 | 3.2 | 8.0 | 0.00 | 0.15 | 0.13 | 78 | 1013.0 |
| 20260507175034 | 11 | 58 | 1.6 | 8.0 | 0.00 | 0.15 | 0.13 | 78 | 1013.1 |
| 20260507174833 | 11 | 49 | 1.6 | 8.0 | 0.00 | 0.15 | 0.13 | 78 | 1013.0 |
| 20260507174634 | 11 | 53 | 1.6 | 8.0 | 0.00 | 0.15 | 0.13 | 78 | 1013.0 |
| 20260507174424 | 11 | 41 | 0.0 | 6.4 | 0.00 | 0.15 | 0.13 | 78 | 1013.1 |
| 20260507174222 | 11 | 61 | 0.0 | 6.4 | 0.00 | 0.15 | 0.13 | 77 | 1013.0 |
| 20260507173658 | 11 | 207 | 0.0 | 4.8 | 0.00 | 0.15 | 0.13 | 78 | 1013.1 |
| 20260507173451 | 11 | 83 | 0.0 | 3.2 | 0.00 | 0.15 | 0.13 | 78 | 1013.0 |
| 20260507173246 | 11 | 128 | 0.0 | 3.2 | 0.00 | 0.15 | 0.13 | 78 | 1013.0 |
| 20260507173036 | 11 | 66 | 0.0 | 3.2 | 0.00 | 0.15 | 0.13 | 78 | 1013.0 |
| 20260507172515 | 11 | 59 | 0.0 | 3.2 | 0.00 | 0.15 | 0.13 | 78 | 1013.0 |
| 20260507172308 | 11 | 152 | 0.0 | 3.2 | 0.00 | 0.15 | 0.13 | 78 | 1013.0 |
| 20260507171106 | 12 | 245 | 0.0 | 3.2 | 0.00 | 0.15 | 0.13 | 76 | 1012.9 |
| 20260507170905 | 12 | 146 | 0.0 | 0.0 | 0.00 | 0.15 | 0.13 | 76 | 1012.9 |
| 20260507170701 | 12 | 226 | 0.0 | 3.2 | 0.00 | 0.15 | 0.13 | 76 | 1012.9 |
| 20260507170454 | 12 | 220 | 0.0 | 3.2 | 0.00 | 0.15 | 0.13 | 76 | 1012.8 |
| 20260507170247 | 12 | 151 | 0.0 | 3.2 | 0.00 | 0.15 | 0.13 | 76 | 1012.9 |
| 20260507170040 | 12 | 283 | 0.0 | 3.2 | 0.00 | 0.15 | 0.13 | 76 | 1012.9 |
| 20260507165838 | 12 | 236 | 0.0 | 6.4 | 0.00 | 0.15 | 0.13 | 76 | 1013.0 |
| 20260507165633 | 12 | 250 | 0.0 | 6.4 | 0.00 | 0.15 | 0.13 | 75 | 1012.9 |
| 20260507165432 | 12 | 136 | 0.0 | 6.4 | 0.00 | 0.15 | 0.13 | 75 | 1012.8 |
| 20260507165231 | 12 | 117 | 0.0 | 6.4 | 0.00 | 0.15 | 0.13 | 75 | 1012.9 |
| 20260507165028 | 12 | 180 | 0.0 | 6.4 | 0.00 | 0.15 | 0.13 | 75 | 1012.8 |
| 20260507164820 | 12 | 221 | 0.0 | 6.4 | 0.00 | 0.15 | 0.13 | 73 | 1012.8 |
| 20260507164615 | 13 | 198 | 0.0 | 6.4 | 0.00 | 0.15 | 0.13 | 73 | 1012.8 |
| 20260507164409 | 13 | 169 | 0.0 | 6.4 | 0.00 | 0.15 | 0.13 | 73 | 1012.9 |
| 20260507164159 | 13 | 146 | 0.0 | 6.4 | 0.00 | 0.15 | 0.13 | 72 | 1012.9 |
| 20260507163957 | 13 | 75 | 0.0 | 6.4 | 0.00 | 0.15 | 0.13 | 72 | 1012.9 |
| 20260507163436 | 13 | 60 | 1.6 | 8.0 | 0.00 | 0.15 | 0.13 | 73 | 1012.9 |
| 20260507163236 | 13 | 67 | 1.6 | 8.0 | 0.00 | 0.15 | 0.13 | 72 | 1013.0 |
| 20260507163036 | 13 | 289 | 1.6 | 8.0 | 0.00 | 0.15 | 0.13 | 71 | 1013.0 |
| 20260507162832 | 13 | 262 | 1.6 | 8.0 | 0.00 | 0.15 | 0.13 | 71 | 1013.0 |
| 20260507162632 | 13 | 245 | 1.6 | 9.7 | 0.00 | 0.15 | 0.13 | 71 | 1012.9 |
| 20260507162425 | 13 | 266 | 1.6 | 9.7 | 0.00 | 0.15 | 0.13 | 72 | 1012.8 |
| 20260507162215 | 13 | 255 | 0.0 | 9.7 | 0.00 | 0.15 | 0.13 | 72 | 1012.8 |
| 20260507162014 | 13 | 60 | 1.6 | 9.7 | 0.00 | 0.15 | 0.13 | 71 | 1012.8 |
| 20260507161806 | 13 | 48 | 1.6 | 9.7 | 0.00 | 0.15 | 0.13 | 70 | 1012.8 |
| 20260507161605 | 14 | 238 | 1.6 | 9.7 | 0.00 | 0.15 | 0.13 | 69 | 1012.8 |
| 20260507161358 | 14 | 284 | 1.6 | 9.7 | 0.00 | 0.15 | 0.13 | 72 | 1012.8 |
| 20260507161151 | 13 | 101 | 3.2 | 9.7 | 0.00 | 0.15 | 0.13 | 71 | 1012.8 |
| 20260507160630 | 13 | 134 | 3.2 | 8.0 | 0.00 | 0.15 | 0.13 | 74 | 1012.8 |
| 20260507160425 | 13 | 42 | 1.6 | 11.3 | 0.00 | 0.15 | 0.13 | 71 | 1012.8 |
| 20260507155854 | 14 | 211 | 1.6 | 11.3 | 0.00 | 0.15 | 0.13 | 69 | 1012.8 |
| 20260507155653 | 14 | 149 | 1.6 | 11.3 | 0.00 | 0.15 | 0.13 | 71 | 1012.8 |
| 20260507155447 | 14 | 75 | 3.2 | 11.3 | 0.00 | 0.15 | 0.13 | 72 | 1012.8 |
| 20260507155240 | 13 | 319 | 3.2 | 11.3 | 0.00 | 0.15 | 0.13 | 74 | 1012.8 |
| 20260507155035 | 13 | 56 | 3.2 | 11.3 | 0.00 | 0.15 | 0.13 | 72 | 1012.9 |
| 20260507154830 | 13 | 56 | 1.6 | 11.3 | 0.00 | 0.15 | 0.13 | 70 | 1012.8 |
| 20260507154627 | 13 | 51 | 1.6 | 11.3 | 0.00 | 0.15 | 0.13 | 71 | 1012.9 |
| 20260507154418 | 13 | 259 | 1.6 | 9.7 | 0.00 | 0.15 | 0.13 | 70 | 1012.9 |
| 20260507154209 | 13 | 300 | 1.6 | 9.7 | 0.00 | 0.15 | 0.13 | 72 | 1012.8 |
| 20260507154005 | 13 | 122 | 1.6 | 9.7 | 0.00 | 0.15 | 0.13 | 72 | 1012.8 |
| 20260507153805 | 13 | 181 | 0.0 | 9.7 | 0.00 | 0.15 | 0.13 | 71 | 1012.9 |
| 20260507153603 | 13 | 258 | 0.0 | 9.7 | 0.00 | 0.15 | 0.13 | 70 | 1012.9 |
| 20260507153359 | 13 | 41 | 0.0 | 9.7 | 0.00 | 0.15 | 0.13 | 70 | 1012.8 |
| 20260507153149 | 13 | 115 | 0.0 | 6.4 | 0.00 | 0.15 | 0.13 | 72 | 1012.8 |
| 20260507152943 | 13 | 269 | 0.0 | 6.4 | 0.00 | 0.15 | 0.13 | 72 | 1012.9 |
| 20260507152740 | 13 | 245 | 0.0 | 6.4 | 0.00 | 0.15 | 0.13 | 71 | 1012.7 |
| 20260507152535 | 13 | 148 | 0.0 | 6.4 | 0.00 | 0.15 | 0.13 | 72 | 1012.7 |
| 20260507152330 | 13 | 263 | 0.0 | 6.4 | 0.00 | 0.15 | 0.13 | 72 | 1012.7 |
| 20260507152122 | 13 | 58 | 0.0 | 4.8 | 0.00 | 0.15 | 0.13 | 72 | 1012.8 |
| 20260507151912 | 13 | 278 | 0.0 | 4.8 | 0.00 | 0.15 | 0.13 | 72 | 1012.8 |
| 20260507151712 | 13 | 280 | 0.0 | 4.8 | 0.00 | 0.15 | 0.13 | 72 | 1012.8 |
| 20260507151502 | 13 | 253 | 0.0 | 4.8 | 0.00 | 0.15 | 0.13 | 74 | 1012.9 |
| 20260507151252 | 13 | 198 | 0.0 | 4.8 | 0.00 | 0.15 | 0.13 | 73 | 1012.8 |
| 20260507151051 | 13 | 214 | 0.0 | 4.8 | 0.00 | 0.15 | 0.13 | 74 | 1012.8 |
| 20260507150849 | 13 | 266 | 0.0 | 4.8 | 0.00 | 0.15 | 0.13 | 72 | 1012.8 |
| 20260507150646 | 13 | 264 | 0.0 | 4.8 | 0.00 | 0.15 | 0.13 | 73 | 1012.8 |
| 20260507150442 | 13 | 323 | 0.0 | 4.8 | 0.00 | 0.15 | 0.13 | 73 | 1012.8 |
| 20260507145929 | 13 | 231 | 0.0 | 3.2 | 0.00 | 0.15 | 0.13 | 73 | 1012.9 |
| 20260507145730 | 13 | 256 | 0.0 | 3.2 | 0.00 | 0.15 | 0.13 | 75 | 1012.8 |
| 20260507145523 | 13 | 263 | 0.0 | 3.2 | 0.00 | 0.15 | 0.13 | 74 | 1012.8 |
| 20260507145319 | 13 | 182 | 0.0 | 0.0 | 0.00 | 0.15 | 0.13 | 75 | 1012.8 |
| 20260507145113 | 13 | 263 | 0.0 | 4.8 | 0.00 | 0.15 | 0.13 | 73 | 1012.8 |
| 20260507144903 | 13 | 284 | 0.0 | 4.8 | 0.00 | 0.15 | 0.13 | 73 | 1012.8 |
| 20260507144658 | 13 | 222 | 0.0 | 4.8 | 0.00 | 0.15 | 0.13 | 73 | 1012.9 |
| 20260507144451 | 13 | 236 | 0.0 | 4.8 | 0.00 | 0.15 | 0.13 | 73 | 1012.8 |
| 20260507144248 | 13 | 259 | 0.0 | 4.8 | 0.00 | 0.15 | 0.13 | 74 | 1012.8 |
| 20260507144048 | 13 | 192 | 0.0 | 0.0 | 0.00 | 0.15 | 0.13 | 74 | 1012.9 |
| 20260507143844 | 13 | 266 | 0.0 | 8.0 | 0.00 | 0.15 | 0.13 | 74 | 1012.9 |
| 20260507143636 | 12 | 257 | 1.6 | 8.0 | 0.00 | 0.15 | 0.13 | 75 | 1012.9 |
| 20260507143432 | 12 | 284 | 1.6 | 8.0 | 0.00 | 0.15 | 0.13 | 75 | 1012.9 |
| 20260507143228 | 12 | 281 | 1.6 | 8.0 | 0.00 | 0.15 | 0.13 | 75 | 1012.9 |
| 20260507143026 | 13 | 283 | 1.6 | 8.0 | 0.00 | 0.15 | 0.13 | 74 | 1012.9 |
| 20260507142816 | 13 | 276 | 1.6 | 8.0 | 0.00 | 0.15 | 0.13 | 75 | 1012.9 |
| 20260507142610 | 13 | 295 | 1.6 | 8.0 | 0.00 | 0.15 | 0.13 | 75 | 1012.9 |
| 20260507142041 | 12 | 205 | 3.2 | 12.9 | 0.00 | 0.15 | 0.13 | 75 | 1012.9 |
| 20260507141835 | 12 | 259 | 4.8 | 12.9 | 0.00 | 0.15 | 0.13 | 75 | 1013.0 |
| 20260507141635 | 12 | 214 | 6.4 | 12.9 | 0.00 | 0.15 | 0.13 | 76 | 1012.8 |
| 20260507141116 | 13 | 302 | 6.4 | 12.9 | 0.00 | 0.15 | 0.13 | 74 | 1012.8 |
| 20260507140906 | 13 | 285 | 4.8 | 12.9 | 0.00 | 0.15 | 0.13 | 74 | 1012.9 |
| 20260507140706 | 13 | 293 | 3.2 | 12.9 | 0.00 | 0.15 | 0.13 | 73 | 1012.8 |
| 20260507140506 | 13 | 259 | 3.2 | 12.9 | 0.00 | 0.15 | 0.13 | 73 | 1012.9 |
| 20260507140256 | 13 | 233 | 3.2 | 9.7 | 0.00 | 0.15 | 0.13 | 72 | 1012.8 |
| 20260507140054 | 13 | 278 | 3.2 | 9.7 | 0.00 | 0.15 | 0.13 | 72 | 1012.9 |
| 20260507135848 | 14 | 303 | 1.6 | 9.7 | 0.00 | 0.15 | 0.13 | 72 | 1012.9 |
| 20260507135642 | 14 | 49 | 1.6 | 9.7 | 0.00 | 0.15 | 0.13 | 75 | 1012.8 |
| 20260507135125 | 14 | 217 | 0.0 | 8.0 | 0.00 | 0.15 | 0.13 | 74 | 1013.0 |
| 20260507134915 | 13 | 280 | 0.0 | 8.0 | 0.00 | 0.15 | 0.13 | 74 | 1013.0 |
| 20260507134705 | 13 | 323 | 0.0 | 8.0 | 0.00 | 0.15 | 0.13 | 74 | 1013.0 |
| 20260507134455 | 13 | 63 | 1.6 | 8.0 | 0.00 | 0.15 | 0.13 | 76 | 1013.0 |
| 20260507134251 | 13 | 293 | 1.6 | 8.0 | 0.00 | 0.15 | 0.13 | 75 | 1013.1 |
| 20260507134044 | 13 | 347 | 1.6 | 8.0 | 0.00 | 0.15 | 0.13 | 76 | 1013.1 |
| 20260507133525 | 13 | 293 | 1.6 | 8.0 | 0.00 | 0.15 | 0.13 | 74 | 1013.3 |
| 20260507133323 | 13 | 293 | 1.6 | 6.4 | 0.00 | 0.15 | 0.13 | 73 | 1013.3 |
| 20260507133114 | 13 | 284 | 0.0 | 6.4 | 0.00 | 0.15 | 0.13 | 72 | 1013.3 |
| 20260507132545 | 13 | 230 | 0.0 | 3.2 | 0.00 | 0.15 | 0.13 | 74 | 1013.4 |
| 20260507132336 | 13 | 297 | 0.0 | 3.2 | 0.00 | 0.15 | 0.13 | 76 | 1013.4 |
| 20260507132133 | 13 | 86 | 0.0 | 1.6 | 0.00 | 0.15 | 0.13 | 76 | 1013.4 |
| 20260507131931 | 13 | 108 | 0.0 | 1.6 | 0.00 | 0.15 | 0.13 | 77 | 1013.3 |
| 20260507131416 | 13 | 109 | 0.0 | 6.4 | 0.00 | 0.15 | 0.13 | 75 | 1013.3 |
| 20260507131211 | 13 | 288 | 0.0 | 6.4 | 0.00 | 0.15 | 0.13 | 76 | 1013.3 |
| 20260507131006 | 13 | 244 | 0.0 | 6.4 | 0.00 | 0.15 | 0.13 | 78 | 1013.3 |
| 20260507130759 | 13 | 61 | 0.0 | 4.8 | 0.00 | 0.15 | 0.13 | 77 | 1013.4 |
| 20260507130556 | 13 | 295 | 0.0 | 4.8 | 0.00 | 0.15 | 0.13 | 75 | 1013.4 |
| 20260507130025 | 12 | 269 | 1.6 | 8.0 | 0.00 | 0.15 | 0.13 | 77 | 1013.4 |
| 20260507125825 | 12 | 245 | 1.6 | 8.0 | 0.00 | 0.15 | 0.13 | 78 | 1013.4 |
| 20260507125626 | 12 | 311 | 1.6 | 8.0 | 0.00 | 0.15 | 0.13 | 80 | 1013.4 |
| 20260507125416 | 12 | 253 | 3.2 | 8.0 | 0.00 | 0.15 | 0.13 | 80 | 1013.4 |
| 20260507124849 | 12 | 295 | 1.6 | 12.9 | 0.00 | 0.15 | 0.13 | 79 | 1013.4 |
| 20260507124640 | 12 | 254 | 1.6 | 12.9 | 0.00 | 0.15 | 0.13 | 80 | 1013.4 |
| 20260507124435 | 12 | 271 | 1.6 | 12.9 | 0.00 | 0.15 | 0.13 | 80 | 1013.3 |
| 20260507123912 | 12 | 265 | 3.2 | 12.9 | 0.00 | 0.15 | 0.13 | 81 | 1013.4 |
| 20260507123342 | 12 | 280 | 3.2 | 12.9 | 0.00 | 0.15 | 0.13 | 80 | 1013.4 |
| 20260507123139 | 12 | 274 | 3.2 | 12.9 | 0.00 | 0.15 | 0.13 | 78 | 1013.4 |
| 20260507122940 | 12 | 250 | 1.6 | 12.9 | 0.00 | 0.15 | 0.13 | 78 | 1013.4 |
| 20260507122730 | 12 | 266 | 3.2 | 12.9 | 0.00 | 0.15 | 0.13 | 78 | 1013.3 |
| 20260507122157 | 12 | 283 | 3.2 | 12.9 | 0.00 | 0.15 | 0.13 | 79 | 1013.3 |
| 20260507121953 | 12 | 292 | 3.2 | 12.9 | 0.00 | 0.15 | 0.13 | 78 | 1013.3 |
| 20260507121748 | 12 | 298 | 1.6 | 12.9 | 0.00 | 0.15 | 0.13 | 78 | 1013.2 |
| 20260507121547 | 12 | 276 | 1.6 | 12.9 | 0.00 | 0.15 | 0.13 | 78 | 1013.3 |
| 20260507121347 | 12 | 274 | 1.6 | 8.0 | 0.00 | 0.15 | 0.13 | 76 | 1013.2 |
| 20260507121138 | 12 | 284 | 1.6 | 8.0 | 0.00 | 0.15 | 0.13 | 74 | 1013.2 |
| 20260507120603 | 12 | 258 | 0.0 | 8.0 | 0.00 | 0.15 | 0.13 | 72 | 1013.2 |
| 20260507120401 | 13 | 271 | 0.0 | 6.4 | 0.00 | 0.15 | 0.13 | 74 | 1013.2 |
| 20260507115840 | 13 | 285 | 0.0 | 6.4 | 0.00 | 0.15 | 0.13 | 69 | 1013.2 |
| 20260507115635 | 13 | 300 | 0.0 | 6.4 | 0.00 | 0.15 | 0.13 | 68 | 1013.2 |
| 20260507115436 | 12 | 292 | 0.0 | 4.8 | 0.00 | 0.15 | 0.13 | 71 | 1013.3 |
| 20260507115227 | 12 | 273 | 0.0 | 3.2 | 0.00 | 0.15 | 0.13 | 73 | 1013.2 |
| 20260507115028 | 12 | 287 | 0.0 | 8.0 | 0.00 | 0.15 | 0.13 | 71 | 1013.3 |
| 20260507114822 | 12 | 297 | 0.0 | 8.0 | 0.00 | 0.15 | 0.13 | 69 | 1013.3 |
| 20260507114616 | 12 | 297 | 1.6 | 8.0 | 0.00 | 0.15 | 0.13 | 69 | 1013.3 |
| 20260507114408 | 12 | 297 | 1.6 | 8.0 | 0.00 | 0.15 | 0.13 | 72 | 1013.4 |
| 20260507114209 | 12 | 156 | 0.0 | 4.8 | 0.00 | 0.15 | 0.13 | 74 | 1013.3 |
| 20260507113318 | 11 | 258 | 1.6 | 11.3 | 0.00 | 0.15 | 0.13 | 74 | 1013.3 |
| 20260507113114 | 11 | 240 | 3.2 | 11.3 | 0.00 | 0.15 | 0.13 | 74 | 1013.3 |
| 20260507112912 | 11 | 304 | 3.2 | 11.3 | 0.00 | 0.15 | 0.13 | 75 | 1013.4 |
| 20260507112705 | 11 | 276 | 3.2 | 11.3 | 0.00 | 0.15 | 0.13 | 74 | 1013.4 |
| 20260507112143 | 11 | 297 | 3.2 | 11.3 | 0.00 | 0.15 | 0.13 | 74 | 1013.3 |
| 20260507111933 | 11 | 288 | 3.2 | 9.7 | 0.00 | 0.15 | 0.13 | 76 | 1013.4 |
| 20260507111409 | 12 | 293 | 3.2 | 9.7 | 0.00 | 0.15 | 0.13 | 74 | 1013.4 |
| 20260507111204 | 12 | 305 | 1.6 | 9.7 | 0.00 | 0.15 | 0.13 | 74 | 1013.4 |
| 20260507111005 | 12 | 252 | 3.2 | 9.7 | 0.00 | 0.15 | 0.13 | 73 | 1013.3 |
| 20260507110803 | 12 | 295 | 3.2 | 9.7 | 0.00 | 0.15 | 0.13 | 74 | 1013.4 |
| 20260507110558 | 12 | 285 | 4.8 | 9.7 | 0.00 | 0.15 | 0.13 | 72 | 1013.3 |
| 20260507110358 | 12 | 300 | 3.2 | 9.7 | 0.00 | 0.15 | 0.13 | 72 | 1013.3 |
| 20260507110148 | 12 | 270 | 3.2 | 9.7 | 0.00 | 0.15 | 0.13 | 72 | 1013.2 |
| 20260507105946 | 12 | 297 | 1.6 | 9.7 | 0.00 | 0.15 | 0.13 | 69 | 1013.3 |
| 20260507105747 | 12 | 291 | 0.0 | 8.0 | 0.00 | 0.15 | 0.13 | 69 | 1013.3 |
| 20260507104903 | 12 | 108 | 0.0 | 0.0 | 0.00 | 0.15 | 0.13 | 74 | 1013.4 |
| 20260507104657 | 12 | 109 | 0.0 | 0.0 | 0.00 | 0.15 | 0.13 | 73 | 1013.4 |
| 20260507104449 | 12 | 109 | 0.0 | 0.0 | 0.00 | 0.15 | 0.13 | 74 | 1013.4 |
| 20260507103924 | 12 | 103 | 0.0 | 4.8 | 0.00 | 0.18 | 0.13 | 71 | 1013.4 |
| 20260507103718 | 12 | 108 | 0.0 | 4.8 | 0.00 | 0.18 | 0.13 | 71 | 1013.3 |
| 20260507103516 | 11 | 252 | 0.0 | 4.8 | 0.00 | 0.18 | 0.13 | 72 | 1013.4 |
| 20260507103312 | 11 | 231 | 0.0 | 4.8 | 0.00 | 0.18 | 0.13 | 70 | 1013.4 |
| 20260507103108 | 11 | 231 | 0.0 | 4.8 | 0.00 | 0.18 | 0.13 | 72 | 1013.5 |
| 20260507102547 | 11 | 250 | 0.0 | 4.8 | 0.00 | 0.18 | 0.13 | 75 | 1013.4 |
| 20260507102341 | 11 | 237 | 0.0 | 1.6 | 0.00 | 0.18 | 0.13 | 76 | 1013.4 |
| 20260507102141 | 11 | 300 | 0.0 | 1.6 | 0.00 | 0.18 | 0.13 | 74 | 1013.4 |
| 20260507101936 | 11 | 281 | 0.0 | 1.6 | 0.00 | 0.18 | 0.13 | 76 | 1013.5 |
| 20260507101413 | 11 | 293 | 0.0 | 0.0 | 0.00 | 0.18 | 0.13 | 75 | 1013.4 |
| 20260507101207 | 11 | 294 | 0.0 | 3.2 | 0.00 | 0.18 | 0.13 | 74 | 1013.5 |
| 20260507101007 | 11 | 293 | 0.0 | 3.2 | 0.00 | 0.18 | 0.13 | 73 | 1013.4 |
| 20260507100759 | 11 | 291 | 0.0 | 3.2 | 0.00 | 0.18 | 0.13 | 74 | 1013.4 |
| 20260507100549 | 11 | 281 | 0.0 | 0.0 | 0.00 | 0.18 | 0.13 | 75 | 1013.4 |
| 20260507100027 | 11 | 280 | 0.0 | 3.2 | 0.00 | 0.23 | 0.13 | 78 | 1013.4 |
| 20260507095822 | 11 | 279 | 0.0 | 4.8 | 0.00 | 0.23 | 0.13 | 78 | 1013.5 |
| 20260507095612 | 11 | 278 | 0.0 | 4.8 | 0.00 | 0.25 | 0.13 | 78 | 1013.4 |
| 20260507095405 | 11 | 277 | 1.6 | 4.8 | 0.00 | 0.25 | 0.13 | 79 | 1013.5 |
| 20260507095157 | 11 | 341 | 1.6 | 4.8 | 0.00 | 0.28 | 0.13 | 79 | 1013.4 |
| 20260507094954 | 11 | 269 | 1.6 | 4.8 | 0.00 | 0.28 | 0.13 | 79 | 1013.4 |
| 20260507094754 | 11 | 279 | 1.6 | 4.8 | 0.00 | 0.28 | 0.13 | 79 | 1013.4 |
| 20260507094235 | 11 | 281 | 0.0 | 4.8 | 0.00 | 0.33 | 0.13 | 77 | 1013.4 |
| 20260507094029 | 11 | 291 | 0.0 | 4.8 | 0.00 | 0.36 | 0.13 | 75 | 1013.4 |
| 20260507093821 | 11 | 278 | 0.0 | 3.2 | 0.00 | 0.36 | 0.13 | 77 | 1013.4 |
| 20260507093621 | 12 | 286 | 0.0 | 8.0 | 0.00 | 0.36 | 0.13 | 75 | 1013.4 |
| 20260507093413 | 11 | 277 | 0.0 | 8.0 | 0.00 | 0.38 | 0.13 | 76 | 1013.4 |
| 20260507092849 | 11 | 283 | 1.6 | 8.0 | 0.00 | 0.41 | 0.13 | 75 | 1013.5 |
| 20260507092646 | 11 | 230 | 1.6 | 8.0 | 0.00 | 0.43 | 0.13 | 76 | 1013.4 |
| 20260507092443 | 11 | 259 | 1.6 | 8.0 | 0.00 | 0.46 | 0.13 | 77 | 1013.5 |
| 20260507091919 | 12 | 244 | 1.6 | 8.0 | 0.00 | 0.51 | 0.13 | 75 | 1013.4 |
| 20260507091344 | 12 | 240 | 0.0 | 6.4 | 0.00 | 0.58 | 0.13 | 78 | 1013.4 |
| 20260507091141 | 12 | 239 | 0.0 | 4.8 | 0.00 | 0.64 | 0.13 | 80 | 1013.4 |
| 20260507090939 | 11 | 295 | 1.6 | 8.0 | 0.00 | 0.64 | 0.13 | 78 | 1013.4 |
| 20260507090739 | 11 | 295 | 1.6 | 8.0 | 0.00 | 0.66 | 0.13 | 81 | 1013.4 |
| 20260507090535 | 11 | 290 | 1.6 | 8.0 | 0.00 | 0.74 | 0.13 | 81 | 1013.4 |
| 20260507090006 | 11 | 231 | 0.0 | 8.0 | 0.00 | 0.79 | 0.13 | 80 | 1013.5 |
| 20260507085800 | 11 | 228 | 0.0 | 6.4 | 0.00 | 0.84 | 0.13 | 81 | 1013.4 |
| 20260507085556 | 11 | 231 | 1.6 | 6.4 | 0.00 | 0.84 | 0.13 | 82 | 1013.4 |
| 20260507085355 | 11 | 235 | 0.0 | 6.4 | 0.00 | 0.86 | 0.13 | 83 | 1013.4 |
| 20260507085147 | 10 | 212 | 0.0 | 6.4 | 0.00 | 0.89 | 0.13 | 83 | 1013.5 |
| 20260507084313 | 10 | 228 | 0.0 | 0.0 | 0.00 | 1.04 | 0.13 | 82 | 1013.5 |
| 20260507084114 | 10 | 228 | 1.6 | 6.4 | 0.00 | 1.07 | 0.13 | 82 | 1013.4 |
| 20260507083229 | 10 | 214 | 1.6 | 8.0 | 0.00 | 1.12 | 0.13 | 84 | 1013.4 |
| 20260507083021 | 10 | 228 | 1.6 | 8.0 | 0.00 | 1.14 | 0.13 | 85 | 1013.5 |
| 20260507082817 | 10 | 229 | 1.6 | 8.0 | 0.00 | 1.14 | 0.13 | 87 | 1013.5 |
| 20260507082611 | 10 | 269 | 3.2 | 8.0 | 0.00 | 1.17 | 0.13 | 84 | 1013.4 |
| 20260507082401 | 10 | 240 | 1.6 | 8.0 | 0.00 | 1.17 | 0.13 | 85 | 1013.4 |
| 20260507082158 | 10 | 238 | 1.6 | 8.0 | 0.00 | 1.19 | 0.13 | 84 | 1013.4 |
| 20260507081630 | 10 | 242 | 0.0 | 8.0 | 0.00 | 1.22 | 0.13 | 86 | 1013.4 |
| 20260507081425 | 10 | 230 | 0.0 | 8.0 | 0.00 | 1.22 | 0.13 | 86 | 1013.4 |
| 20260507081226 | 10 | 230 | 0.0 | 8.0 | 0.00 | 1.22 | 0.13 | 86 | 1013.4 |
| 20260507081026 | 10 | 257 | 0.0 | 8.0 | 0.00 | 1.22 | 0.13 | 87 | 1013.3 |
| 20260507080819 | 10 | 254 | 0.0 | 8.0 | 0.00 | 1.22 | 0.13 | 87 | 1013.4 |
| 20260507080612 | 10 | 238 | 0.0 | 8.0 | 0.00 | 1.22 | 0.13 | 85 | 1013.4 |
| 20260507080406 | 10 | 237 | 1.6 | 8.0 | 0.00 | 1.22 | 0.13 | 86 | 1013.4 |
| 20260507080159 | 10 | 239 | 1.6 | 8.0 | 0.00 | 1.22 | 0.13 | 88 | 1013.3 |
| 20260507075948 | 10 | 248 | 1.6 | 8.0 | 0.00 | 1.22 | 0.13 | 87 | 1013.3 |
| 20260507075746 | 10 | 226 | 1.6 | 6.4 | 0.00 | 1.22 | 0.13 | 88 | 1013.3 |
| 20260507075541 | 10 | 227 | 1.6 | 6.4 | 0.00 | 1.22 | 0.13 | 87 | 1013.4 |
| 20260507075335 | 10 | 236 | 1.6 | 6.4 | 0.00 | 1.22 | 0.13 | 88 | 1013.4 |
| 20260507075126 | 9 | 273 | 1.6 | 6.4 | 0.00 | 1.22 | 0.13 | 89 | 1013.3 |
| 20260507074920 | 9 | 232 | 1.6 | 6.4 | 0.00 | 1.22 | 0.13 | 89 | 1013.3 |
| 20260507074359 | 9 | 238 | 1.6 | 6.4 | 0.00 | 1.22 | 0.13 | 88 | 1013.3 |
| 20260507074151 | 9 | 232 | 0.0 | 6.4 | 0.00 | 1.22 | 0.13 | 89 | 1013.3 |
| 20260507073947 | 9 | 238 | 0.0 | 6.4 | 0.00 | 1.22 | 0.13 | 89 | 1013.4 |
| 20260507073740 | 8 | 238 | 0.0 | 3.2 | 0.00 | 1.22 | 0.13 | 91 | 1013.2 |
| 20260507073536 | 8 | 238 | 0.0 | 3.2 | 0.00 | 1.22 | 0.13 | 91 | 1013.2 |
| 20260507073334 | 8 | 232 | 0.0 | 3.2 | 0.00 | 1.22 | 0.13 | 91 | 1013.3 |
| 20260507073133 | 8 | 238 | 0.0 | 6.4 | 0.00 | 1.22 | 0.13 | 91 | 1013.2 |
| 20260507072606 | 8 | 238 | 1.6 | 6.4 | 0.00 | 1.22 | 0.13 | 91 | 1013.2 |
| 20260507072403 | 8 | 226 | 1.6 | 6.4 | 0.00 | 1.22 | 0.13 | 92 | 1013.3 |
| 20260507072154 | 8 | 233 | 1.6 | 6.4 | 0.00 | 1.22 | 0.13 | 91 | 1013.2 |
| 20260507071950 | 8 | 262 | 0.0 | 6.4 | 0.00 | 1.22 | 0.13 | 90 | 1013.2 |
| 20260507071751 | 8 | 231 | 0.0 | 6.4 | 0.00 | 1.22 | 0.13 | 90 | 1013.2 |
| 20260507071548 | 8 | 241 | 0.0 | 6.4 | 0.00 | 1.22 | 0.13 | 91 | 1013.2 |
| 20260507071343 | 8 | 276 | 0.0 | 1.6 | 0.00 | 1.22 | 0.13 | 92 | 1013.2 |
| 20260507071138 | 8 | 229 | 0.0 | 0.0 | 0.00 | 1.22 | 0.13 | 92 | 1013.2 |
| 20260507070613 | 8 | 237 | 1.6 | 6.4 | 0.00 | 1.22 | 0.13 | 92 | 1013.0 |
| 20260507070411 | 8 | 235 | 1.6 | 6.4 | 0.00 | 1.22 | 0.13 | 92 | 1013.1 |
| 20260507070207 | 8 | 240 | 1.6 | 6.4 | 0.00 | 1.22 | 0.13 | 92 | 1013.0 |
| 20260507065958 | 8 | 240 | 1.6 | 6.4 | 0.00 | 1.22 | 0.13 | 92 | 1013.1 |
| 20260507065752 | 8 | 245 | 0.0 | 6.4 | 0.00 | 1.22 | 0.13 | 92 | 1013.0 |
| 20260507065553 | 8 | 248 | 0.0 | 6.4 | 0.00 | 1.22 | 0.13 | 93 | 1013.0 |
| 20260507065020 | 7 | 245 | 0.0 | 6.4 | 0.00 | 1.22 | 0.13 | 92 | 1013.0 |
| 20260507064814 | 7 | 236 | 1.6 | 6.4 | 0.00 | 1.22 | 0.13 | 93 | 1012.9 |
| 20260507064610 | 7 | 243 | 1.6 | 6.4 | 0.00 | 1.22 | 0.13 | 92 | 1013.0 |
| 20260507064400 | 7 | 252 | 1.6 | 6.4 | 0.00 | 1.22 | 0.13 | 93 | 1012.9 |
| 20260507064157 | 7 | 239 | 1.6 | 6.4 | 0.00 | 1.22 | 0.13 | 92 | 1012.9 |
| 20260507063955 | 7 | 236 | 1.6 | 4.8 | 0.00 | 1.22 | 0.13 | 93 | 1013.0 |
| 20260507063751 | 7 | 263 | 0.0 | 4.8 | 0.00 | 1.22 | 0.13 | 93 | 1012.9 |
| 20260507063547 | 7 | 234 | 0.0 | 6.4 | 0.00 | 1.22 | 0.13 | 93 | 1012.8 |
| 20260507063342 | 7 | 219 | 0.0 | 6.4 | 0.00 | 1.22 | 0.13 | 93 | 1012.9 |
| 20260507063133 | 7 | 224 | 0.0 | 6.4 | 0.00 | 1.22 | 0.13 | 93 | 1012.8 |
| 20260507062929 | 7 | 214 | 0.0 | 6.4 | 0.00 | 1.22 | 0.13 | 93 | 1012.9 |
| 20260507062416 | 7 | 214 | 1.6 | 8.0 | 0.00 | 1.22 | 0.13 | 92 | 1012.8 |
| 20260507061859 | 7 | 219 | 1.6 | 8.0 | 0.00 | 1.22 | 0.13 | 93 | 1012.8 |
| 20260507061652 | 7 | 240 | 1.6 | 8.0 | 0.00 | 1.22 | 0.13 | 93 | 1012.7 |
| 20260507061452 | 7 | 230 | 1.6 | 12.9 | 0.00 | 1.22 | 0.13 | 93 | 1012.8 |
| 20260507061244 | 7 | 231 | 1.6 | 12.9 | 0.00 | 1.22 | 0.13 | 94 | 1012.7 |
| 20260507061039 | 7 | 226 | 1.6 | 12.9 | 0.00 | 1.22 | 0.13 | 94 | 1012.6 |
| 20260507060837 | 7 | 230 | 3.2 | 12.9 | 0.00 | 1.22 | 0.13 | 94 | 1012.6 |
| 20260507060627 | 7 | 236 | 3.2 | 12.9 | 0.00 | 1.22 | 0.13 | 94 | 1012.7 |
| 20260507060419 | 7 | 240 | 3.2 | 12.9 | 0.00 | 1.22 | 0.13 | 94 | 1012.7 |
| 20260507055851 | 7 | 231 | 3.2 | 12.9 | 0.00 | 1.22 | 0.13 | 93 | 1012.6 |
| 20260507055651 | 7 | 216 | 3.2 | 12.9 | 0.00 | 1.22 | 0.13 | 94 | 1012.6 |
| 20260507055444 | 7 | 229 | 3.2 | 9.7 | 0.00 | 1.22 | 0.13 | 94 | 1012.6 |
| 20260507055237 | 7 | 238 | 3.2 | 9.7 | 0.00 | 1.22 | 0.13 | 95 | 1012.6 |
| 20260507055033 | 7 | 228 | 3.2 | 9.7 | 0.00 | 1.22 | 0.13 | 95 | 1012.6 |
| 20260507054833 | 7 | 246 | 3.2 | 9.7 | 0.00 | 1.22 | 0.13 | 96 | 1012.6 |
| 20260507054628 | 7 | 204 | 1.6 | 9.7 | 0.00 | 1.22 | 0.13 | 96 | 1012.6 |
| 20260507054428 | 7 | 245 | 1.6 | 9.7 | 0.00 | 1.22 | 0.13 | 96 | 1012.5 |
| 20260507054222 | 6 | 233 | 1.6 | 6.4 | 0.00 | 1.22 | 0.13 | 97 | 1012.6 |
| 20260507054017 | 6 | 217 | 1.6 | 6.4 | 0.00 | 1.22 | 0.13 | 97 | 1012.6 |
| 20260507053135 | 6 | 219 | 3.2 | 8.0 | 0.00 | 1.22 | 0.13 | 97 | 1012.5 |
| 20260507052254 | 6 | 236 | 3.2 | 9.7 | 0.00 | 1.22 | 0.13 | 97 | 1012.5 |
| 20260507051403 | 6 | 207 | 3.2 | 9.7 | 0.00 | 1.22 | 0.13 | 97 | 1012.4 |
| 20260507051156 | 6 | 242 | 4.8 | 9.7 | 0.00 | 1.22 | 0.13 | 96 | 1012.4 |
| 20260507050946 | 6 | 234 | 4.8 | 9.7 | 0.00 | 1.22 | 0.13 | 96 | 1012.4 |
| 20260507050742 | 6 | 238 | 4.8 | 8.0 | 0.00 | 1.22 | 0.13 | 96 | 1012.4 |
| 20260507050532 | 6 | 255 | 3.2 | 8.0 | 0.00 | 1.22 | 0.13 | 96 | 1012.2 |
| 20260507050329 | 6 | 244 | 3.2 | 8.0 | 0.00 | 1.22 | 0.13 | 95 | 1012.3 |
| 20260507050130 | 6 | 225 | 1.6 | 8.0 | 0.00 | 1.22 | 0.13 | 95 | 1012.2 |
| 20260507045927 | 6 | 219 | 1.6 | 8.0 | 0.00 | 1.22 | 0.13 | 95 | 1012.2 |
| 20260507045723 | 6 | 252 | 1.6 | 8.0 | 0.00 | 1.22 | 0.13 | 95 | 1012.3 |
| 20260507045513 | 6 | 227 | 1.6 | 8.0 | 0.00 | 1.22 | 0.13 | 94 | 1012.2 |
| 20260507045313 | 6 | 238 | 1.6 | 8.0 | 0.00 | 1.22 | 0.13 | 94 | 1012.2 |
| 20260507045115 | 6 | 246 | 1.6 | 8.0 | 0.00 | 1.22 | 0.13 | 94 | 1012.2 |
| 20260507044906 | 6 | 234 | 0.0 | 8.0 | 0.00 | 1.22 | 0.13 | 93 | 1012.2 |
| 20260507044657 | 7 | 233 | 0.0 | 8.0 | 0.00 | 1.22 | 0.13 | 93 | 1012.1 |
| 20260507044457 | 7 | 238 | 0.0 | 4.8 | 0.00 | 1.22 | 0.13 | 92 | 1012.1 |
| 20260507043616 | 7 | 254 | 0.0 | 0.0 | 0.00 | 1.22 | 0.13 | 91 | 1012.0 |
| 20260507043416 | 7 | 255 | 0.0 | 4.8 | 0.00 | 1.22 | 0.13 | 91 | 1012.0 |
| 20260507043207 | 7 | 237 | 0.0 | 4.8 | 0.00 | 1.22 | 0.13 | 90 | 1012.0 |
| 20260507043005 | 7 | 242 | 0.0 | 4.8 | 0.00 | 1.22 | 0.13 | 90 | 1012.0 |
| 20260507042802 | 7 | 217 | 0.0 | 3.2 | 0.00 | 1.22 | 0.13 | 90 | 1012.0 |
| 20260507042601 | 7 | 220 | 0.0 | 3.2 | 0.00 | 1.22 | 0.13 | 90 | 1012.0 |
| 20260507042355 | 7 | 212 | 0.0 | 1.6 | 0.00 | 1.22 | 0.13 | 90 | 1012.0 |
| 20260507042156 | 7 | 240 | 0.0 | 6.4 | 0.00 | 1.22 | 0.13 | 90 | 1012.0 |
| 20260507041952 | 7 | 240 | 0.0 | 6.4 | 0.00 | 1.22 | 0.13 | 90 | 1011.8 |
| 20260507041752 | 7 | 235 | 0.0 | 6.4 | 0.00 | 1.22 | 0.13 | 90 | 1011.9 |
| 20260507041553 | 7 | 239 | 1.6 | 6.4 | 0.00 | 1.22 | 0.13 | 90 | 1011.9 |
| 20260507041345 | 7 | 199 | 1.6 | 6.4 | 0.00 | 1.22 | 0.13 | 90 | 1011.8 |
| 20260507040817 | 7 | 224 | 1.6 | 9.7 | 0.00 | 1.22 | 0.13 | 90 | 1011.7 |
| 20260507040611 | 7 | 225 | 1.6 | 9.7 | 0.00 | 1.22 | 0.13 | 89 | 1011.7 |
| 20260507040403 | 7 | 135 | 1.6 | 9.7 | 0.00 | 1.22 | 0.13 | 90 | 1011.7 |
| 20260507040203 | 7 | 145 | 1.6 | 9.7 | 0.00 | 1.22 | 0.13 | 90 | 1011.7 |
| 20260507040003 | 7 | 209 | 1.6 | 9.7 | 0.00 | 1.22 | 0.13 | 90 | 1011.7 |
| 20260507035756 | 7 | 233 | 1.6 | 9.7 | 0.00 | 1.22 | 0.13 | 90 | 1011.7 |
| 20260507034552 | 7 | 205 | 0.0 | 6.4 | 0.00 | 1.22 | 0.13 | 91 | 1011.7 |
| 20260507034353 | 7 | 206 | 1.6 | 6.4 | 0.00 | 1.22 | 0.13 | 91 | 1011.6 |
| 20260507034146 | 7 | 188 | 1.6 | 6.4 | 0.00 | 1.22 | 0.13 | 91 | 1011.7 |
| 20260507033626 | 7 | 243 | 1.6 | 6.4 | 0.00 | 1.22 | 0.13 | 91 | 1011.7 |
| 20260507033427 | 7 | 169 | 1.6 | 6.4 | 0.00 | 1.22 | 0.13 | 91 | 1011.6 |
| 20260507032859 | 7 | 240 | 3.2 | 8.0 | 0.00 | 1.22 | 0.13 | 91 | 1011.6 |
| 20260507032651 | 7 | 207 | 1.6 | 8.0 | 0.00 | 1.22 | 0.13 | 91 | 1011.6 |
| 20260507032441 | 7 | 236 | 3.2 | 8.0 | 0.00 | 1.22 | 0.13 | 91 | 1011.5 |
| 20260507032234 | 7 | 208 | 3.2 | 11.3 | 0.00 | 1.22 | 0.13 | 91 | 1011.5 |
| 20260507032031 | 7 | 237 | 3.2 | 11.3 | 0.00 | 1.22 | 0.13 | 91 | 1011.5 |
| 20260507031823 | 7 | 219 | 3.2 | 11.3 | 0.00 | 1.22 | 0.13 | 91 | 1011.5 |
| 20260507031615 | 7 | 236 | 3.2 | 11.3 | 0.00 | 1.22 | 0.13 | 90 | 1011.4 |
| 20260507030736 | 7 | 204 | 3.2 | 11.3 | 0.00 | 1.22 | 0.13 | 91 | 1011.4 |
| 20260507030532 | 7 | 257 | 3.2 | 11.3 | 0.00 | 1.22 | 0.13 | 91 | 1011.4 |
| 20260507030325 | 7 | 204 | 3.2 | 11.3 | 0.00 | 1.22 | 0.13 | 91 | 1011.4 |
| 20260507030117 | 7 | 214 | 3.2 | 11.3 | 0.00 | 1.22 | 0.13 | 91 | 1011.5 |
| 20260507025917 | 7 | 227 | 3.2 | 11.3 | 0.00 | 1.22 | 0.13 | 91 | 1011.4 |
| 20260507025352 | 6 | 226 | 3.2 | 8.0 | 0.00 | 1.22 | 0.13 | 92 | 1011.5 |
| 20260507025147 | 6 | 245 | 3.2 | 8.0 | 0.00 | 1.22 | 0.13 | 93 | 1011.5 |
| 20260507024942 | 6 | 257 | 3.2 | 8.0 | 0.00 | 1.22 | 0.13 | 93 | 1011.5 |
| 20260507024424 | 6 | 228 | 3.2 | 8.0 | 0.00 | 1.22 | 0.13 | 93 | 1011.5 |
| 20260507024214 | 6 | 207 | 1.6 | 8.0 | 0.00 | 1.22 | 0.13 | 93 | 1011.5 |
| 20260507024009 | 6 | 247 | 1.6 | 8.0 | 0.00 | 1.22 | 0.13 | 92 | 1011.6 |
| 20260507023442 | 7 | 234 | 3.2 | 8.0 | 0.00 | 1.22 | 0.13 | 91 | 1011.6 |
| 20260507023234 | 7 | 226 | 3.2 | 8.0 | 0.00 | 1.22 | 0.13 | 91 | 1011.5 |
| 20260507023027 | 7 | 231 | 3.2 | 8.0 | 0.00 | 1.22 | 0.13 | 91 | 1011.5 |
| 20260507022821 | 7 | 254 | 3.2 | 8.0 | 0.00 | 1.22 | 0.13 | 90 | 1011.6 |
| 20260507022612 | 7 | 210 | 3.2 | 8.0 | 0.00 | 1.22 | 0.13 | 90 | 1011.5 |
| 20260507022044 | 7 | 213 | 3.2 | 9.7 | 0.00 | 1.22 | 0.13 | 91 | 1011.4 |
| 20260507021836 | 7 | 186 | 3.2 | 9.7 | 0.00 | 1.22 | 0.13 | 91 | 1011.4 |
| 20260507021634 | 7 | 219 | 3.2 | 9.7 | 0.00 | 1.22 | 0.13 | 91 | 1011.5 |
| 20260507021434 | 7 | 213 | 3.2 | 9.7 | 0.00 | 1.22 | 0.13 | 91 | 1011.5 |
| 20260507021229 | 7 | 246 | 3.2 | 9.7 | 0.00 | 1.22 | 0.13 | 91 | 1011.4 |
| 20260507021028 | 7 | 191 | 3.2 | 9.7 | 0.00 | 1.22 | 0.13 | 91 | 1011.4 |
| 20260507020826 | 7 | 197 | 3.2 | 9.7 | 0.00 | 1.22 | 0.13 | 91 | 1011.4 |
| 20260507020624 | 7 | 247 | 3.2 | 9.7 | 0.00 | 1.22 | 0.13 | 91 | 1011.4 |
| 20260507020420 | 7 | 217 | 3.2 | 9.7 | 0.00 | 1.22 | 0.13 | 92 | 1011.4 |
| 20260507020214 | 6 | 196 | 3.2 | 9.7 | 0.00 | 1.22 | 0.13 | 92 | 1011.4 |
| 20260507020011 | 6 | 237 | 3.2 | 11.3 | 0.00 | 1.22 | 0.13 | 93 | 1011.4 |
| 20260507015802 | 6 | 203 | 3.2 | 11.3 | 0.00 | 1.22 | 0.13 | 93 | 1011.4 |
| 20260507015600 | 6 | 240 | 3.2 | 11.3 | 0.00 | 1.22 | 0.13 | 94 | 1011.3 |
| 20260507015354 | 6 | 205 | 3.2 | 11.3 | 0.00 | 1.22 | 0.13 | 94 | 1011.4 |
| 20260507015152 | 6 | 222 | 1.6 | 11.3 | 0.00 | 1.22 | 0.13 | 95 | 1011.3 |
| 20260507014948 | 6 | 226 | 1.6 | 11.3 | 0.00 | 1.22 | 0.13 | 95 | 1011.4 |
| 20260507014746 | 6 | 217 | 1.6 | 11.3 | 0.00 | 1.22 | 0.13 | 95 | 1011.3 |
| 20260507014221 | 6 | 205 | 3.2 | 11.3 | 0.00 | 1.22 | 0.13 | 96 | 1011.3 |
| 20260507014015 | 6 | 338 | 3.2 | 11.3 | 0.00 | 1.22 | 0.13 | 96 | 1011.3 |
| 20260507013809 | 6 | 205 | 3.2 | 11.3 | 0.00 | 1.22 | 0.13 | 96 | 1011.2 |
| 20260507013237 | 6 | 169 | 3.2 | 11.3 | 0.00 | 1.22 | 0.13 | 96 | 1011.2 |
| 20260507012354 | 6 | 227 | 3.2 | 9.7 | 0.00 | 1.22 | 0.13 | 96 | 1011.1 |
| 20260507012148 | 6 | 236 | 3.2 | 9.7 | 0.00 | 1.22 | 0.13 | 96 | 1011.1 |
| 20260507011943 | 6 | 264 | 3.2 | 9.7 | 0.00 | 1.22 | 0.13 | 96 | 1011.1 |
| 20260507011419 | 6 | 193 | 3.2 | 8.0 | 0.00 | 1.22 | 0.13 | 96 | 1011.1 |
| 20260507011003 | 6 | 178 | 1.6 | 8.0 | 0.00 | 1.22 | 0.13 | 97 | 1011.0 |
| 20260507010758 | 6 | 224 | 1.6 | 8.0 | 0.00 | 1.22 | 0.13 | 97 | 1011.2 |
| 20260507010554 | 6 | 221 | 1.6 | 8.0 | 0.00 | 1.22 | 0.13 | 97 | 1011.1 |
| 20260507010344 | 6 | 216 | 1.6 | 11.3 | 0.00 | 1.22 | 0.13 | 97 | 1011.2 |
| 20260507005813 | 6 | 281 | 3.2 | 11.3 | 0.00 | 1.22 | 0.13 | 97 | 1011.2 |
| 20260507005613 | 6 | 217 | 3.2 | 11.3 | 0.00 | 1.22 | 0.13 | 97 | 1011.3 |
| 20260507005049 | 6 | 221 | 3.2 | 12.9 | 0.00 | 1.22 | 0.13 | 97 | 1011.2 |
| 20260507004848 | 6 | 207 | 3.2 | 12.9 | 0.00 | 1.22 | 0.13 | 97 | 1011.2 |
| 20260507004330 | 6 | 210 | 3.2 | 12.9 | 0.00 | 1.22 | 0.13 | 97 | 1011.2 |
| 20260507004123 | 6 | 230 | 3.2 | 12.9 | 0.00 | 1.22 | 0.13 | 97 | 1011.3 |
| 20260507003923 | 6 | 206 | 3.2 | 12.9 | 0.00 | 1.22 | 0.13 | 97 | 1011.3 |
| 20260507003718 | 6 | 212 | 3.2 | 12.9 | 0.00 | 1.22 | 0.13 | 97 | 1011.2 |
| 20260507003159 | 6 | 235 | 1.6 | 12.9 | 0.00 | 1.22 | 0.13 | 97 | 1011.2 |
| 20260507002955 | 6 | 229 | 1.6 | 12.9 | 0.00 | 1.22 | 0.13 | 97 | 1011.2 |
| 20260507002752 | 6 | 210 | 3.2 | 12.9 | 0.00 | 1.22 | 0.13 | 97 | 1011.2 |
| 20260507002233 | 6 | 229 | 3.2 | 12.9 | 0.00 | 1.22 | 0.13 | 97 | 1011.2 |
| 20260507001718 | 6 | 241 | 4.8 | 12.9 | 0.00 | 1.22 | 0.13 | 97 | 1011.2 |
| 20260507001512 | 6 | 219 | 4.8 | 12.9 | 0.00 | 1.22 | 0.13 | 97 | 1011.2 |
| 20260507001313 | 6 | 229 | 4.8 | 12.9 | 0.00 | 1.22 | 0.10 | 97 | 1011.2 |
| 20260507000742 | 6 | 190 | 3.2 | 12.9 | 0.00 | 1.22 | 0.10 | 97 | 1011.2 |
| 20260507000539 | 6 | 243 | 3.2 | 12.9 | 0.00 | 1.22 | 0.10 | 97 | 1011.3 |
| 20260507000339 | 6 | 214 | 3.2 | 12.9 | 0.00 | 1.22 | 0.10 | 97 | 1011.3 |
| 20260507000138 | 6 | 224 | 1.6 | 12.9 | 0.00 | 1.22 | 0.10 | 97 | 1011.3 |
| 20260506235928 | 6 | 131 | 1.6 | 11.3 | 0.00 | 1.22 | 0.10 | 97 | 1011.2 |
| 20260506235723 | 6 | 233 | 1.6 | 8.0 | 0.00 | 1.22 | 0.10 | 97 | 1011.2 |
| 20260506235515 | 6 | 256 | 1.6 | 9.7 | 0.00 | 1.22 | 0.10 | 97 | 1011.3 |
| 20260506235307 | 6 | 226 | 3.2 | 9.7 | 0.00 | 1.22 | 0.10 | 97 | 1011.3 |
| 20260506235102 | 6 | 226 | 3.2 | 9.7 | 0.00 | 1.22 | 0.10 | 97 | 1011.3 |
| 20260506234853 | 6 | 205 | 3.2 | 9.7 | 0.00 | 1.22 | 0.10 | 97 | 1011.3 |
| 20260506234650 | 6 | 208 | 3.2 | 14.5 | 0.00 | 1.22 | 0.10 | 97 | 1011.3 |
| 20260506234448 | 6 | 258 | 3.2 | 14.5 | 0.00 | 1.22 | 0.10 | 97 | 1011.2 |
| 20260506234246 | 6 | 179 | 4.8 | 14.5 | 0.00 | 1.22 | 0.10 | 97 | 1011.3 |
| 20260506234041 | 6 | 259 | 4.8 | 14.5 | 0.00 | 1.22 | 0.10 | 97 | 1011.3 |
| 20260506233516 | 6 | 233 | 4.8 | 16.1 | 0.00 | 1.22 | 0.10 | 97 | 1011.3 |
| 20260506233311 | 6 | 227 | 4.8 | 16.1 | 0.00 | 1.22 | 0.10 | 97 | 1011.3 |
| 20260506232431 | 6 | 220 | 6.4 | 16.1 | 0.00 | 1.22 | 0.10 | 97 | 1011.4 |
| 20260506232222 | 6 | 263 | 6.4 | 16.1 | 0.00 | 1.22 | 0.10 | 97 | 1011.3 |
| 20260506232015 | 6 | 205 | 6.4 | 16.1 | 0.00 | 1.22 | 0.10 | 97 | 1011.3 |
| 20260506231816 | 6 | 241 | 6.4 | 16.1 | 0.00 | 1.22 | 0.10 | 97 | 1011.3 |
| 20260506231613 | 6 | 224 | 6.4 | 11.3 | 0.00 | 1.22 | 0.10 | 97 | 1011.3 |
| 20260506231405 | 6 | 237 | 4.8 | 11.3 | 0.00 | 1.22 | 0.10 | 97 | 1011.3 |
| 20260506231202 | 6 | 249 | 4.8 | 9.7 | 0.00 | 1.22 | 0.10 | 97 | 1011.3 |
| 20260506231001 | 6 | 242 | 3.2 | 8.0 | 0.00 | 1.22 | 0.10 | 97 | 1011.4 |
| 20260506230433 | 6 | 244 | 1.6 | 8.0 | 0.00 | 1.22 | 0.10 | 97 | 1011.3 |
| 20260506225907 | 6 | 245 | 0.0 | 8.0 | 0.00 | 1.22 | 0.10 | 97 | 1011.2 |
| 20260506225706 | 6 | 233 | 0.0 | 8.0 | 0.00 | 1.22 | 0.10 | 97 | 1011.3 |
| 20260506225458 | 6 | 230 | 0.0 | 6.4 | 0.00 | 1.22 | 0.10 | 97 | 1011.3 |
| 20260506225257 | 6 | 241 | 0.0 | 4.8 | 0.00 | 1.22 | 0.10 | 97 | 1011.2 |
| 20260506224049 | 6 | 202 | 0.0 | 4.8 | 0.00 | 1.22 | 0.10 | 96 | 1011.3 |
| 20260506223844 | 6 | 146 | 0.0 | 4.8 | 0.00 | 1.22 | 0.10 | 96 | 1011.2 |
| 20260506223640 | 6 | 205 | 0.0 | 4.8 | 0.00 | 1.22 | 0.10 | 96 | 1011.2 |
| 20260506222754 | 6 | 223 | 0.0 | 8.0 | 0.13 | 1.22 | 0.10 | 96 | 1011.2 |
| 20260506222219 | 6 | 212 | 0.0 | 8.0 | 0.36 | 1.22 | 0.10 | 96 | 1011.2 |
| 20260506221701 | 6 | 229 | 3.2 | 12.9 | 0.08 | 1.17 | 0.08 | 95 | 1011.2 |
| 20260506221500 | 6 | 212 | 1.6 | 12.9 | 0.08 | 1.17 | 0.08 | 95 | 1011.2 |
| 20260506221252 | 6 | 236 | 1.6 | 12.9 | 0.10 | 1.17 | 0.08 | 95 | 1011.1 |
| 20260506220717 | 6 | 243 | 3.2 | 12.9 | 0.25 | 1.09 | 0.08 | 95 | 1011.2 |
| 20260506220517 | 6 | 239 | 3.2 | 12.9 | 0.46 | 1.09 | 0.08 | 95 | 1011.3 |
| 20260506220307 | 6 | 224 | 4.8 | 12.9 | 1.40 | 1.09 | 0.08 | 96 | 1011.3 |
| 20260506220058 | 7 | 229 | 3.2 | 12.9 | 1.52 | 1.09 | 0.00 | 96 | 1011.4 |
| 20260506215852 | 7 | 240 | 3.2 | 9.7 | 0.00 | 1.07 | 1.07 | 96 | 1011.4 |
| 20260506215642 | 7 | 240 | 3.2 | 9.7 | 0.00 | 1.07 | 1.07 | 96 | 1011.4 |
| 20260506215125 | 7 | 238 | 3.2 | 9.7 | 0.00 | 1.07 | 1.07 | 96 | 1011.3 |
| 20260506214921 | 7 | 252 | 3.2 | 9.7 | 0.00 | 1.07 | 1.07 | 96 | 1011.3 |
| 20260506214711 | 7 | 236 | 3.2 | 9.7 | 0.00 | 1.07 | 1.07 | 96 | 1011.2 |
| 20260506214504 | 7 | 238 | 1.6 | 8.0 | 0.00 | 1.07 | 1.07 | 96 | 1011.2 |
| 20260506213937 | 7 | 245 | 3.2 | 8.0 | 0.00 | 1.07 | 1.07 | 96 | 1011.2 |
| 20260506213735 | 7 | 246 | 3.2 | 8.0 | 0.00 | 1.07 | 1.07 | 96 | 1011.2 |
| 20260506213532 | 7 | 229 | 3.2 | 8.0 | 0.00 | 1.07 | 1.07 | 96 | 1011.3 |
| 20260506213332 | 7 | 243 | 3.2 | 8.0 | 0.00 | 1.07 | 1.07 | 96 | 1011.3 |
| 20260506213130 | 7 | 238 | 3.2 | 8.0 | 0.00 | 1.07 | 1.07 | 96 | 1011.2 |
| 20260506212930 | 7 | 238 | 3.2 | 8.0 | 0.00 | 1.07 | 1.07 | 96 | 1011.2 |
| 20260506212719 | 7 | 236 | 3.2 | 8.0 | 0.00 | 1.07 | 1.07 | 96 | 1011.2 |
| 20260506212509 | 7 | 234 | 3.2 | 11.3 | 0.00 | 1.07 | 1.07 | 96 | 1011.2 |
| 20260506212308 | 7 | 236 | 3.2 | 11.3 | 0.00 | 1.07 | 1.07 | 96 | 1011.1 |
| 20260506212058 | 7 | 241 | 3.2 | 11.3 | 0.00 | 1.07 | 1.07 | 96 | 1011.0 |
| 20260506211532 | 7 | 241 | 4.8 | 11.3 | 0.00 | 1.07 | 1.07 | 95 | 1011.1 |
| 20260506211330 | 7 | 239 | 4.8 | 11.3 | 0.00 | 1.07 | 1.07 | 95 | 1011.2 |
| 20260506211128 | 7 | 240 | 4.8 | 11.3 | 0.00 | 1.07 | 1.07 | 95 | 1011.0 |
| 20260506210925 | 7 | 242 | 4.8 | 11.3 | 0.00 | 1.07 | 1.07 | 95 | 1011.1 |
| 20260506210718 | 7 | 246 | 4.8 | 11.3 | 0.00 | 1.07 | 1.07 | 95 | 1011.0 |
| 20260506210509 | 7 | 238 | 3.2 | 9.7 | 0.00 | 1.07 | 1.07 | 95 | 1011.0 |
| 20260506210307 | 7 | 236 | 3.2 | 9.7 | 0.00 | 1.07 | 1.07 | 95 | 1011.0 |
| 20260506205736 | 7 | 242 | 3.2 | 8.0 | 0.00 | 1.07 | 1.07 | 96 | 1011.1 |
| 20260506205537 | 7 | 236 | 3.2 | 8.0 | 0.00 | 1.07 | 1.07 | 96 | 1011.1 |
| 20260506205013 | 7 | 232 | 3.2 | 6.4 | 0.00 | 1.07 | 1.07 | 96 | 1011.0 |
| 20260506204804 | 7 | 230 | 1.6 | 6.4 | 0.00 | 1.07 | 1.07 | 96 | 1011.1 |
| 20260506204558 | 7 | 238 | 1.6 | 6.4 | 0.00 | 1.07 | 1.07 | 96 | 1011.0 |
| 20260506204356 | 7 | 250 | 1.6 | 6.4 | 0.00 | 1.07 | 1.07 | 96 | 1010.9 |
| 20260506204147 | 7 | 224 | 1.6 | 4.8 | 0.00 | 1.07 | 1.07 | 96 | 1011.0 |
| 20260506203937 | 7 | 236 | 1.6 | 4.8 | 0.00 | 1.07 | 1.07 | 96 | 1010.8 |
| 20260506203734 | 7 | 234 | 0.0 | 4.8 | 0.00 | 1.07 | 1.07 | 96 | 1010.9 |
| 20260506203526 | 7 | 241 | 0.0 | 6.4 | 0.00 | 1.07 | 1.07 | 96 | 1010.8 |